Notices

What's New in latest Release from April 7th, 2021:

- Updated Glossary, including Speed of Maximum Gust, and Total Hourly Precipitation

- Updated national and regional climate services offices contacts and prices information

- Addition of station inventory lists for 1981-2010, 1971-2000, and 1961-1990 Normals.

If you haven't already, please take our survey and provide feedback about our website: https://eccc.sondage-survey.ca/f/LanguageSelection.aspx?s=442ca660-fcf1-47c0-95a9-59707d6fd709

Hourly Data Report for June 01, 2004

SHERBROOKE A
QUEBEC

45°26'00.000" N
71°41'00.000" W
241.40 m
7028124
71610
YSC

Download Data

Hourly Data (June 2004)
Hourly Data Report for June 1, 2004
TIME
LST
Temp Definition
°C
Dew Point Definition
°C
Rel Hum Definition
%
Precip. Amount Definition
mm

Wind Dir Definition
10's deg

Wind Spd Definition
km/h
Visibility Definition
km
Stn Press Definition
kPa
Hmdx Definition


Wind Chill Definition


Weather Definition


00:00 10.3 4.7 68   13 13 15.0 97.69      
01:00 10.0 3.9 66   12 13 15.0 97.67      
02:00 10.5 3.2 61   12 13 15.0 97.65      
03:00 10.7 1.8 54   14 15 15.0 97.65      
04:00 9.8 2.2 59   12 7 15.0 97.66      
05:00 8.9 4.4 73   24 6 15.0 97.66     Rain
06:00 11.0 2.1 54   14 9 15.0 97.64      
07:00 10.3 1.7 55   15 22 24.1 97.66     Rain
08:00 6.9 4.6 85   15 17 9.7 97.73     Rain,Fog
09:00 7.2 5.4 88   14 13 9.7 97.74     Rain,Fog
10:00 7.4 5.6 88   13 15 9.7 97.72     Rain,Fog
11:00 7.4 5.6 88   13 15 12.9 97.72     Rain
12:00 6.8 5.1 89   11 17 19.3 97.66     Rain
13:00 7.6 6.0 90   12 15 16.1 97.62     Rain
14:00 7.6 5.7 88   14 17 19.3 97.61     Rain
15:00 8.7 6.7 87   13 15 24.1 97.55     Cloudy
16:00 8.8 6.7 87   14 13 19.3 97.54     Rain
17:00 8.8 6.3 84   14 15 15.0 97.54      
18:00 8.9 6.2 83   15 9 15.0 97.57      
19:00 8.0 6.6 91   15 11 8.0 97.61     Rain
20:00 7.6 6.3 91   16 9 15.0 97.63     Rain
21:00 7.6 6.2 91   14 11 5.6 97.65     Moderate Rain
22:00 7.6 6.2 91   13 13 15.0 97.63     Rain
23:00 7.8 6.2 90   14 11 15.0 97.58     Rain

Notes on Data Quality.

Legend

  • E = Estimated
  • M = Missing
  • NA = Not Available*
  • [empty] = Indicates an unobserved value
Date modified: